| time (UTC) | temp F | wind direction | speed MPH | gust MPH | rain 1hr in | rain 24hr in | rain mn in | humidity % | barometer mb |
| 20260505233008 | 46 | 360 | 7.0 | 14.0 | 0.00 | 0.01 | 0.00 | 100 | 1015.7 |
| 20260505231507 | 46 | 360 | 7.0 | 12.0 | 0.00 | 0.01 | 0.00 | 100 | 1015.6 |
| 20260505230024 | 47 | 360 | 7.0 | 13.0 | 0.00 | 0.01 | 0.00 | 100 | 1015.7 |
| 20260505224508 | 47 | 360 | 5.0 | 11.0 | 0.00 | 0.01 | 0.01 | 100 | 1015.7 |
| 20260505223008 | 47 | 360 | 6.0 | 15.0 | 0.00 | 0.01 | 0.01 | 100 | 1015.7 |
| 20260505221508 | 47 | 360 | 8.0 | 15.0 | 0.00 | 0.01 | 0.01 | 100 | 1015.6 |
| 20260505220010 | 47 | 360 | 10.0 | 22.0 | 0.00 | 0.01 | 0.01 | 100 | 1015.4 |
| 20260505214507 | 48 | 360 | 11.0 | 19.0 | 0.00 | 0.01 | 0.01 | 100 | 1015.6 |
| 20260505213008 | 49 | 360 | 8.0 | 15.0 | 0.00 | 0.01 | 0.01 | 100 | 1015.5 |
| 20260505211508 | 50 | 360 | 7.0 | 13.0 | 0.00 | 0.01 | 0.01 | 100 | 1015.5 |
| 20260505204506 | 50 | 360 | 6.0 | 14.0 | 0.00 | 0.01 | 0.01 | 100 | 1015.4 |
| 20260505203007 | 50 | 360 | 7.0 | 13.0 | 0.00 | 0.01 | 0.01 | 100 | 1015.3 |
| 20260505201506 | 51 | 360 | 6.0 | 12.0 | 0.00 | 0.01 | 0.01 | 100 | 1015.3 |
| 20260505200012 | 51 | 360 | 6.0 | 11.0 | 0.00 | 0.01 | 0.01 | 100 | 1015.1 |
| 20260505194506 | 51 | 360 | 4.0 | 11.0 | 0.00 | 0.02 | 0.01 | 100 | 1015.1 |
| 20260505193007 | 51 | 10 | 3.0 | 5.0 | 0.00 | 0.02 | 0.01 | 100 | 1014.8 |
| 20260505191507 | 52 | 339 | 4.0 | 9.0 | 0.00 | 0.02 | 0.01 | 100 | 1014.8 |
| 20260505190009 | 52 | 350 | 4.0 | 10.0 | 0.00 | 0.02 | 0.01 | 100 | 1014.7 |
| 20260505184506 | 52 | 328 | 4.0 | 8.0 | 0.00 | 0.02 | 0.01 | 100 | 1014.6 |
| 20260505183007 | 53 | 331 | 4.0 | 8.0 | 0.00 | 0.02 | 0.01 | 100 | 1014.6 |
| 20260505181506 | 53 | 336 | 5.0 | 10.0 | 0.00 | 0.02 | 0.01 | 100 | 1014.5 |
| 20260505180015 | 53 | 9 | 6.0 | 12.0 | 0.00 | 0.02 | 0.01 | 100 | 1014.5 |
| 20260505174506 | 54 | 319 | 5.0 | 10.0 | 0.00 | 0.02 | 0.01 | 100 | 1014.5 |
| 20260505173007 | 54 | 340 | 5.0 | 13.0 | 0.00 | 0.02 | 0.01 | 100 | 1014.5 |
| 20260505171507 | 54 | 315 | 7.0 | 14.0 | 0.00 | 0.02 | 0.01 | 100 | 1014.6 |
| 20260505170012 | 55 | 321 | 6.0 | 14.0 | 0.00 | 0.02 | 0.01 | 100 | 1014.5 |
| 20260505164506 | 55 | 14 | 6.0 | 12.0 | 0.00 | 0.02 | 0.01 | 100 | 1014.6 |
| 20260505163009 | 55 | 309 | 6.0 | 12.0 | 0.00 | 0.02 | 0.01 | 100 | 1014.5 |
| 20260505161506 | 55 | 346 | 8.0 | 13.0 | 0.00 | 0.02 | 0.01 | 100 | 1014.4 |
| 20260505153007 | 54 | 309 | 7.0 | 12.0 | 0.00 | 0.02 | 0.01 | 100 | 1014.6 |
| 20260505151504 | 54 | 305 | 7.0 | 15.0 | 0.00 | 0.02 | 0.01 | 100 | 1014.6 |
| 20260505123007 | 56 | 350 | 4.0 | 9.0 | 0.00 | 0.02 | 0.01 | 100 | 1014.7 |
| 20260505121506 | 55 | 323 | 5.0 | 13.0 | 0.00 | 0.02 | 0.01 | 100 | 1014.8 |
| 20260505120010 | 55 | 319 | 7.0 | 12.0 | 0.00 | 0.02 | 0.01 | 100 | 1014.8 |
| 20260505114506 | 56 | 336 | 5.0 | 14.0 | 0.00 | 0.02 | 0.01 | 100 | 1014.8 |
| 20260505113007 | 54 | 28 | 8.0 | 13.0 | 0.00 | 0.02 | 0.01 | 100 | 1014.9 |
| 20260505111506 | 54 | 350 | 8.0 | 15.0 | 0.00 | 0.02 | 0.01 | 100 | 1015.0 |
| 20260505094506 | 53 | 331 | 7.0 | 16.0 | 0.00 | 0.03 | 0.01 | 100 | 1015.3 |
| 20260505093006 | 51 | 348 | 7.0 | 11.0 | 0.00 | 0.03 | 0.01 | 100 | 1015.4 |
| 20260505091507 | 52 | 290 | 7.0 | 16.0 | 0.00 | 0.03 | 0.01 | 100 | 1015.3 |
| 20260505090010 | 53 | 81 | 4.0 | 10.0 | 0.00 | 0.03 | 0.01 | 100 | 1015.3 |
| 20260505084506 | 50 | 319 | 7.0 | 15.0 | 0.00 | 0.03 | 0.01 | 100 | 1015.3 |
| 20260505083007 | 50 | 360 | 7.0 | 13.0 | 0.00 | 0.03 | 0.01 | 100 | 1015.4 |
| 20260505081507 | 50 | 25 | 6.0 | 14.0 | 0.00 | 0.03 | 0.01 | 100 | 1015.5 |
| 20260505080017 | 50 | 335 | 7.0 | 15.0 | 0.00 | 0.03 | 0.01 | 100 | 1015.5 |
| 20260505074505 | 48 | 326 | 6.0 | 12.0 | 0.00 | 0.03 | 0.01 | 100 | 1015.5 |
| 20260505073006 | 48 | 304 | 6.0 | 12.0 | 0.00 | 0.03 | 0.01 | 100 | 1015.6 |
| 20260505071505 | 47 | 321 | 6.0 | 11.0 | 0.00 | 0.03 | 0.01 | 100 | 1015.5 |
| 20260505064505 | 45 | 360 | 4.0 | 6.0 | 0.00 | 0.03 | 0.01 | 100 | 1015.7 |
| 20260505063006 | 45 | 277 | 3.0 | 6.0 | 0.00 | 0.03 | 0.01 | 100 | 1015.7 |
| 20260505061505 | 44 | 313 | 3.0 | 8.0 | 0.00 | 0.03 | 0.01 | 100 | 1015.5 |
| 20260505060010 | 44 | 327 | 4.0 | 9.0 | 0.00 | 0.03 | 0.01 | 100 | 1015.5 |
| 20260505054505 | 43 | 306 | 2.0 | 4.0 | 0.00 | 0.04 | 0.01 | 100 | 1015.4 |
| 20260505051505 | 42 | 303 | 3.0 | 4.0 | 0.00 | 0.04 | 0.01 | 100 | 1015.4 |
| 20260505041505 | 40 | 311 | 1.0 | 3.0 | 0.01 | 0.04 | 0.01 | 100 | 1015.3 |
| 20260505040008 | 41 | 337 | 0.0 | 0.0 | 0.00 | 0.03 | 0.00 | 100 | 1015.3 |
| 20260505034508 | 41 | 337 | 0.0 | 0.0 | 0.00 | 0.03 | 0.00 | 100 | 1015.4 |
| 20260505033006 | 41 | 337 | 0.0 | 0.0 | 0.00 | 0.03 | 0.00 | 100 | 1015.4 |
| 20260505031503 | 41 | 337 | 0.0 | 0.0 | 0.00 | 0.03 | 0.00 | 100 | 1015.5 |
| 20260505030008 | 42 | 337 | 0.0 | 0.0 | 0.00 | 0.03 | 0.00 | 100 | 1015.6 |
| 20260505024505 | 42 | 337 | 0.0 | 0.0 | 0.00 | 0.03 | 0.00 | 100 | 1015.5 |
| 20260505023005 | 42 | 337 | 1.0 | 2.0 | 0.00 | 0.03 | 0.00 | 100 | 1015.6 |
| 20260505021506 | 43 | 360 | 2.0 | 4.0 | 0.00 | 0.03 | 0.00 | 100 | 1015.7 |
| 20260505020018 | 43 | 360 | 2.0 | 4.0 | 0.00 | 0.03 | 0.00 | 100 | 1015.9 |
| 20260505014505 | 44 | 360 | 3.0 | 4.0 | 0.00 | 0.04 | 0.00 | 100 | 1015.9 |
| 20260505013011 | 44 | 360 | 3.0 | 5.0 | 0.00 | 0.04 | 0.00 | 100 | 1016.0 |
| 20260505011506 | 45 | 360 | 2.0 | 4.0 | 0.00 | 0.04 | 0.00 | 100 | 1016.2 |
| 20260505010012 | 45 | 360 | 2.0 | 4.0 | 0.00 | 0.04 | 0.00 | 100 | 1016.2 |
| 20260505004505 | 46 | 360 | 3.0 | 4.0 | 0.00 | 0.04 | 0.00 | 100 | 1016.1 |
| 20260505003010 | 47 | 360 | 3.0 | 5.0 | 0.00 | 0.04 | 0.00 | 100 | 1016.1 |
| 20260505001505 | 48 | 360 | 2.0 | 5.0 | 0.00 | 0.04 | 0.00 | 100 | 1016.2 |